Springfield, VT

10:26 PM EDT on August 18, 2017 (GMT -0400)
Hartness State

Weather History for KVSF - December, 2012

Change the Weather History Date:

Thursday, December 20, 2012

  Actual Average Record
Temperature  
Mean Temperature 31 °F 24 °F  
Max Temperature 36 °F 33 °F 43 °F (2011)
Min Temperature 26 °F 15 °F -8 °F (2016)
Degree Days  
Heating Degree Days 34 41  
Month to date heating degree days 639 751  
Since 1 July heating degree days 1976 2394  
Cooling Degree Days 0 0  
Month to date cooling degree days 0  
Year to date cooling degree days 345  
Moisture  
Dew Point 26 °F    
Average Humidity 78    
Maximum Humidity 92    
Minimum Humidity 64    
Precipitation  
Precipitation T in 0.10 in 0.32 in (2002)
Month to date precipitation 2.30 2.15  
Year to date precipitation 32.80 42.73  
Sea Level Pressure  
Sea Level Pressure 30.12 in    
Wind  
Wind Speed 2 mph (NNW)    
Max Wind Speed 10 mph    
Max Gust Speed 15 mph    
Visibility 10 miles    
Events Snow    
T = Trace of Precipitation, MM = Missing Value Source: NWS Daily Summary

Daily Weather History Graph

Daily Weather History Graph

Search for Another Location

Airport or City:

Trip Planner

Search our weather history database for the weather conditions in past years. The results will help you decide how hot, cold, wet, or windy it might be!

Date:

Astronomy

Dec. 20, 2012 Rise Set
Actual Time 7:19 AM EST 4:16 PM EST
Civil Twilight 6:46 AM EST 4:49 PM EST
Nautical Twilight 6:10 AM EST 5:25 PM EST
Astronomical Twilight 5:35 AM EST 6:00 PM EST
Moon 11:42 AM EST (12/20) No Moon Set
Length of Visible Light 10h 03m
Length of Day
8h 57m
First Quarter, 55% of the Moon is Illuminated
Dec 20
First Quarter
Dec 28
Full
Jan 4
Last Quarter
Jan 11
New
Jan 18
First Quarter

Hourly Weather History & Observations

Time (EST) Temp. Windchill Dew Point Humidity Pressure Visibility Wind Dir Wind Speed Gust Speed Precip Events Conditions
12:54 AM 36.0 °F 30.3 °F 24.1 °F 62% 30.10 in 10.0 mi NW 6.9 mph - N/A   Overcast
1:54 AM 35.1 °F 27.9 °F 24.1 °F 64% 30.12 in 10.0 mi WNW 9.2 mph - N/A   Clear
2:54 AM 30.9 °F 27.5 °F 24.1 °F 76% 30.13 in 10.0 mi WNW 3.5 mph - N/A   Clear
3:54 AM 28.9 °F - 25.0 °F 85% 30.12 in 10.0 mi Calm Calm - N/A   Scattered Clouds
4:31 AM 26.6 °F - 24.8 °F 93% 30.11 in 10.0 mi Calm Calm - N/A   Mostly Cloudy
4:41 AM 26.6 °F - 24.8 °F 93% 30.11 in 10.0 mi Calm Calm - N/A   Scattered Clouds
4:54 AM 27.0 °F 23.0 °F 25.0 °F 92% 30.13 in 10.0 mi NW 3.5 mph - N/A   Partly Cloudy
5:54 AM 26.1 °F - 24.1 °F 92% 30.17 in 10.0 mi Calm Calm - N/A   Partly Cloudy
6:06 AM 26.6 °F - 24.8 °F 93% 30.16 in 10.0 mi Calm Calm - N/A   Mostly Cloudy
6:33 AM 26.6 °F - 24.8 °F 93% 30.17 in 10.0 mi Calm Calm - N/A   Scattered Clouds
6:44 AM 26.6 °F 20.0 °F 24.8 °F 93% 30.18 in 10.0 mi East 5.8 mph - N/A   Mostly Cloudy
6:54 AM 27.0 °F 23.0 °F 25.0 °F 92% 30.20 in 10.0 mi NE 3.5 mph - N/A   Mostly Cloudy
7:54 AM 28.0 °F - 25.0 °F 88% 30.21 in 10.0 mi Calm Calm - N/A   Overcast
8:54 AM 30.9 °F - 27.0 °F 85% 30.23 in 10.0 mi Calm Calm - N/A   Overcast
9:54 AM 32.0 °F - 27.0 °F 82% 30.24 in 10.0 mi Calm Calm - N/A   Overcast
10:54 AM 33.1 °F - 26.1 °F 75% 30.22 in 10.0 mi Calm Calm - N/A   Overcast
11:54 AM 35.1 °F 31.0 °F 24.1 °F 64% 30.20 in 10.0 mi WNW 4.6 mph - N/A   Overcast
12:54 PM 35.1 °F - 24.1 °F 64% 30.15 in 10.0 mi Calm Calm - N/A   Overcast
1:54 PM 35.1 °F - 24.1 °F 64% 30.14 in 10.0 mi Calm Calm - N/A   Overcast
2:54 PM 36.0 °F - 24.1 °F 62% 30.13 in 10.0 mi Calm Calm - N/A   Overcast
4:30 PM 33.8 °F - 26.6 °F 75% 30.11 in 10.0 mi Calm Calm - N/A   Overcast
4:54 PM 34.0 °F - 26.1 °F 73% 30.12 in 10.0 mi Calm Calm - N/A   Overcast
5:54 PM 33.1 °F - 26.1 °F 75% 30.09 in 10.0 mi Calm Calm - N/A   Overcast
6:27 PM 33.8 °F - 26.6 °F 75% 30.07 in 10.0 mi Calm Calm - N/A   Overcast
6:54 PM 32.0 °F - 28.0 °F 85% 30.11 in 10.0 mi Calm Calm - N/A   Overcast
7:54 PM 32.0 °F - 28.0 °F 85% 30.10 in 10.0 mi Calm Calm - N/A   Overcast
8:07 PM 33.8 °F - 26.6 °F 75% 30.08 in 10.0 mi Calm Calm - N/A   Overcast
8:39 PM 33.8 °F - 26.6 °F 75% 30.05 in 10.0 mi Calm Calm - N/A   Overcast
8:54 PM 32.0 °F - 28.0 °F 85% 30.08 in 10.0 mi Calm Calm - N/A   Overcast
9:54 PM 34.0 °F - 25.0 °F 70% 30.06 in 10.0 mi Calm Calm - N/A   Overcast
10:54 PM 34.0 °F 29.8 °F 25.0 °F 70% 30.04 in 10.0 mi SSE 4.6 mph - N/A   Overcast
11:51 PM 33.8 °F 29.6 °F 26.6 °F 75% 29.97 in 1.8 mi ESE 4.6 mph - 0.00 in Snow Light Snow
11:54 PM 33.1 °F 30.0 °F 27.0 °F 78% 29.99 in 1.5 mi Variable 3.5 mph - 0.00 in Snow Light Snow